User: anonymous   Login
Location: *
(53.9002°N, 27.5624°E)
Time: 15:09:23
(UTC+00:00)
Language:

Cosmos 1725 Rocket - Orbit

View from above orbital plane
View from above orbital plane
View from above satellite
View from above satellite

Ground track
Ground track

The orbit data is extracted from the following two-line orbital elements,

1 16494U 86005B   20021.17124840 -.00000007  00000-0 -22517-4 0  9995
2 16494  82.9304  86.6813 0020964 106.2637 309.6230 13.76493520708334
Epoch (UTC): 21 January 2020 04:06:35
Eccentricity: 0.0020964
inclination: 82.9304°
perigee height: 961 km
apogee height: 992 km
right ascension of ascending node: 86.6813°
argument of perigee: 106.2637°
revolutions per day: 13.76493520
mean anomaly at epoch: 309.6230°
orbit number at epoch: 70833

The dashed part of the orbit path shows where the satellite is in the earth's shadow,  

DLR